Starlink 6181

operational
NORAD ID: 56888 Int'l Des: 2023-083 Owner: SPXS Country: US Constellation: starlink
LEOCIRCULAR

关于 Starlink 6181

正在加载描述...

实时位置

正在加载3D地球...

即将过境

高度历史

Altitude vs Time

uPlot chart will show altitude changes over time

两行轨道根数

1 56888U 23083N 25301.07733997 .00000203 00000-0 30090-4 0 9998
2 56888 43.0031 82.2163 0001195 273.1146 86.9560 15.02537141131727
Epoch: Oct 28, 2025 • Age: 20 hours

当前状态

高度 570.1 km
速度 7.58 km/s
星下点 -39.40°S, 4.5°E
发射日期 Jun 12, 2023
运行时间 2.3 years
类型 internet

技术详情

分类 Payload
质量 305.00 kg
干质量 290.00 kg
总质量 305.00 kg
长度 0.20 m
直径 2.80 m
跨度 9.00 m
形状 Box + pan
制造商 SPXS
平台类型 Starlink
阶段状态 In Orbit
所有者/国家 SPXS/US

大型星座

Loading constellations...